Year,Month,Day,Hour,Minute,Value (Times are PST for temperature in C)
2010,01,18,00,00,6.20
2010,01,18,00,01,6.20
2010,01,18,00,02,6.10
2010,01,18,00,03,6.10
2010,01,18,00,04,6.10
2010,01,18,00,05,6.10
2010,01,18,00,06,6.00
2010,01,18,00,07,6.00
2010,01,18,00,08,5.90
2010,01,18,00,09,5.90
2010,01,18,00,10,5.90
2010,01,18,00,11,5.90
2010,01,18,00,12,5.80
2010,01,18,00,13,5.80
2010,01,18,00,14,5.80
2010,01,18,00,15,5.80
2010,01,18,00,16,5.80
2010,01,18,00,17,5.70
2010,01,18,00,18,5.70
2010,01,18,00,19,5.70
2010,01,18,00,20,5.70
2010,01,18,00,21,5.80
2010,01,18,00,22,5.70
2010,01,18,00,23,5.80
2010,01,18,00,24,5.70
2010,01,18,00,25,5.80
2010,01,18,00,26,5.80
2010,01,18,00,27,5.80
2010,01,18,00,28,5.80
2010,01,18,00,29,5.80
2010,01,18,00,30,5.90
2010,01,18,00,31,6.00
2010,01,18,00,32,6.10
2010,01,18,00,33,6.10
2010,01,18,00,34,6.10
2010,01,18,00,35,6.20
2010,01,18,00,36,6.20
2010,01,18,00,37,6.20
2010,01,18,00,38,6.20
2010,01,18,00,39,6.20
2010,01,18,00,40,6.20
2010,01,18,00,41,6.20
2010,01,18,00,42,6.20
2010,01,18,00,43,6.30
2010,01,18,00,44,6.30
2010,01,18,00,45,6.40
2010,01,18,00,46,6.50
2010,01,18,00,47,6.60
2010,01,18,00,48,6.90
2010,01,18,00,49,7.20
2010,01,18,00,50,7.40
2010,01,18,00,51,7.60
2010,01,18,00,52,7.70
2010,01,18,00,53,7.80
2010,01,18,00,54,7.80
2010,01,18,00,55,7.90
2010,01,18,00,56,8.00
2010,01,18,00,57,8.10
2010,01,18,00,58,8.20
2010,01,18,00,59,8.20
2010,01,18,01,00,8.30
2010,01,18,01,01,8.30
2010,01,18,01,02,8.40
2010,01,18,01,03,8.40
2010,01,18,01,04,8.40
2010,01,18,01,05,8.50
2010,01,18,01,06,8.50
2010,01,18,01,07,8.60
2010,01,18,01,08,8.60
2010,01,18,01,09,8.60
2010,01,18,01,10,8.60
2010,01,18,01,11,8.70
2010,01,18,01,12,8.70
2010,01,18,01,13,8.70
2010,01,18,01,14,8.70
2010,01,18,01,15,8.70
2010,01,18,01,16,8.70
2010,01,18,01,17,8.80
2010,01,18,01,18,8.80
2010,01,18,01,19,8.80
2010,01,18,01,20,8.90
2010,01,18,01,21,8.90
2010,01,18,01,22,8.90
2010,01,18,01,23,9.00
2010,01,18,01,24,9.00
2010,01,18,01,25,9.00
2010,01,18,01,26,9.00
2010,01,18,01,27,9.00
2010,01,18,01,28,9.00
2010,01,18,01,29,9.00
2010,01,18,01,30,9.00
2010,01,18,01,31,9.10
2010,01,18,01,32,9.10
2010,01,18,01,33,9.10
2010,01,18,01,34,9.10
2010,01,18,01,35,9.10
2010,01,18,01,36,9.10
2010,01,18,01,37,9.10
2010,01,18,01,41,9.10
2010,01,18,01,42,9.10
2010,01,18,01,43,9.10
2010,01,18,01,44,9.10
2010,01,18,01,45,9.10
2010,01,18,01,46,9.10
2010,01,18,01,47,9.10
2010,01,18,01,48,9.10
2010,01,18,01,49,9.10
2010,01,18,01,50,9.20
2010,01,18,01,51,9.20
2010,01,18,01,52,9.20
2010,01,18,01,53,9.20
2010,01,18,01,54,9.20
2010,01,18,01,55,9.20
2010,01,18,01,56,9.20
2010,01,18,01,57,9.20
2010,01,18,01,58,9.20
2010,01,18,01,59,9.20
2010,01,18,02,00,9.20
2010,01,18,02,01,9.20
2010,01,18,02,02,9.20
2010,01,18,02,03,9.20
2010,01,18,02,04,9.10
2010,01,18,02,05,9.10
2010,01,18,02,06,9.10
2010,01,18,02,07,9.10
2010,01,18,02,08,9.10
2010,01,18,02,09,9.10
2010,01,18,02,10,9.10
2010,01,18,02,11,9.10
2010,01,18,02,12,9.10
2010,01,18,02,13,9.10
2010,01,18,02,14,9.10
2010,01,18,02,15,9.10
2010,01,18,02,16,9.10
2010,01,18,02,17,9.10
2010,01,18,02,18,9.10
2010,01,18,02,19,9.10
2010,01,18,02,20,9.10
2010,01,18,02,21,9.10
2010,01,18,02,22,9.10
2010,01,18,02,23,9.10
2010,01,18,02,24,9.10
2010,01,18,02,25,9.10
2010,01,18,02,26,9.10
2010,01,18,02,27,9.10
2010,01,18,02,28,9.10
2010,01,18,02,29,9.10
2010,01,18,02,30,9.00
2010,01,18,02,31,9.00
2010,01,18,02,32,9.00
2010,01,18,02,33,9.00
2010,01,18,02,34,8.90
2010,01,18,02,35,8.90
2010,01,18,02,36,8.90
2010,01,18,02,37,8.90
2010,01,18,02,38,8.80
2010,01,18,02,39,8.80
2010,01,18,02,40,8.80
2010,01,18,02,41,8.80
2010,01,18,02,42,8.80
